Weather observations for the past three days for
Columbus Air Force Base
Imperial (Metric)
Date Time (cdt) Wind (mph) Vis. (mi.) Weather Sky Cond. Temperature (ºF) Relative Humidity Wind Chill (°F) Heat Index (°F) Pressure Precipitation (in)
Air Dwpt 6 hour altimeter (in) sea level (mb) 1 hr 3 hr 6 hr
Max. Min.
12 21:55 Calm 10.00 Fair CLR 70.3 64.2 81% 29.92 1013.2
12 20:55 NW 3 10.00 Fair CLR 74.8 64.4 70% 29.91 1012.9
12 19:55 N 6 10.00 Partly Cloudy SCT250 79.2 63.1 58% 81 29.91 1012.9
12 18:55 N 3 10.00 Fair CLR 83.5 59.9 85.8 83.5 45% 84 29.91 1012.9
12 17:55 NW 5 10.00 Partly Cloudy SCT210 84.6 60.8 45% 85 29.9 1012.6
12 16:55 N 3 10.00 Fair CLR 85.3 60.8 44% 85 29.91 1012.9
12 15:55 N 6 10.00 Fair CLR 84.4 59.4 43% 84 29.91 1012.9
12 14:55 W 6 10.00 Fair CLR 84.6 58.8 42% 84 29.93 1013.6
12 13:55 Calm 10.00 Mostly Cloudy BKN200 85.3 58.1 40% 85 29.93 1013.6
12 12:55 N 5 10.00 Mostly Cloudy FEW055 SCT160 BKN210 83.5 56.7 84 61.3 40% 83 29.95 1014.3
12 11:55 Calm 10.00 Mostly Cloudy FEW140 BKN210 82 56.7 42% 82 29.97 1014.9
12 10:55 SE 3 10.00 Mostly Cloudy BKN210 80.1 60.3 51% 81 29.97 1015.0
12 08:55 Calm 10.00 Mostly Cloudy BKN210 70.7 57.9 64% 29.97 1015.0
12 07:55 Calm 10.00 Mostly Cloudy BKN210 67.6 58.3 72% 29.96 1014.6
12 06:55 Calm 10.00 Fair CLR 61.2 57.9 63.1 59.9 89% 29.95 1014.3
12 05:55 NW 3 10.00 A Few Clouds FEW220 60.6 57.4 89% 29.95 1014.3
12 04:55 Calm 10.00 Fair CLR 61 57 87% 29.93 1013.6
12 03:55 NW 3 10.00 Partly Cloudy SCT230 61.9 57.6 86% 29.92 1013.3
12 02:55 Calm 10.00 Mostly Cloudy BKN220 62.2 57.7 85% 29.92 1013.2
12 01:55 Calm 10.00 Fair CLR 61.7 57.4 86% 29.92 0.0
12 00:55 NW 3 10.00 Fair CLR 62.6 57.7 79.7 62.6 84% 29.92 0.0
11 23:55 Calm 10.00 Fair CLR 65.5 58.1 77% 29.93 0.0
11 22:55 Calm 10.00 Fair CLR 63.5 57.9 82% 29.93 0.0
11 21:55 Calm 10.00 Fair CLR 65.8 58.8 78% 29.92 0.0
11 20:55 Calm 10.00 Fair CLR 68.7 58.1 69% 29.9 0.0
11 19:55 N 6 10.00 Fair CLR 74.5 55.8 52% 29.89 0.0
11 18:55 N 6 10.00 Fair CLR 79.9 54 83.5 79.7 41% 80 29.89 0.0
11 17:55 N 8 10.00 Fair CLR 81.1 53.8 39% 81 29.88 0.0
11 16:55 N 13 10.00 Fair CLR 82.4 54.1 38% 82 29.88 0.0
11 15:55 NW 9 10.00 Fair CLR 81.7 55.6 41% 81 29.89 0.0
11 14:55 N 15 10.00 Fair CLR 83.1 56.3 40% 82 29.9 0.0
11 13:55 N 10 10.00 A Few Clouds FEW100 FEW190 81.7 55.6 41% 81 29.9 1012.6
11 12:55 N 10 G 17 10.00 Fair CLR 81.9 56.5 82.4 64.6 42% 82 29.92 1013.2
11 11:55 N 8 10.00 A Few Clouds FEW200 80.6 57.2 45% 81 29.93 1013.6
11 10:55 N 8 10.00 Fair CLR 79.3 58.5 49% 80 29.94 1013.9
11 09:55 N 9 10.00 Fair CLR 77.5 56.8 49% 79 29.94 1013.9
11 08:55 N 8 10.00 Fair CLR 73.9 59.2 60% 29.94 1013.9
11 07:55 N 6 10.00 Fair CLR 69.6 61 74% 29.93 1013.6
11 05:55 N 3 10.00 Fair CLR 61.9 58.8 90% 29.92 1013.3
11 04:55 NW 3 10.00 Fair CLR 62.4 59.7 91% 29.91 1012.9
11 03:55 Calm 10.00 Fair CLR 63.9 60.3 88% 29.89 1012.2
11 02:55 N 3 10.00 Fair CLR 65.1 60.4 85% 29.88 1011.9
11 01:55 Calm 10.00 Fair CLR 66.6 61.2 83% 29.87 1011.5
11 00:55 N 3 10.00 Fair CLR 67.8 61.7 83.5 66.2 81% 29.88 1011.9
10 23:55 Calm 10.00 Fair CLR 68.4 62.6 82% 29.87 1011.5
10 22:55 Calm 10.00 Fair CLR 66.9 61.5 83% 29.86 1011.2
10 21:55 Calm 10.00 Fair CLR 70 62.4 77% 29.85 1010.9
10 20:55 Calm 10.00 Fair CLR 72.7 61.5 68% 29.82 1009.8
10 19:55 N 3 10.00 Partly Cloudy SCT180 78.8 57.9 49% 80 29.8 1009.2
10 18:55 N 9 10.00 Partly Cloudy SCT180 83.7 56.1 86.7 83.7 39% 83 29.8 1009.2
10 17:55 N 9 10.00 A Few Clouds FEW090 85.6 55.6 36% 84 29.8 1009.1
10 16:55 N 9 10.00 A Few Clouds FEW280 86 55.9 36% 85 29.8 1009.1
10 15:55 N 10 10.00 Fair CLR 86.4 58.5 39% 86 29.81 1009.5
10 14:55 NE 9 10.00 Partly Cloudy SCT280 86 58.8 40% 85 29.83 1010.2
10 13:55 N 6 10.00 Partly Cloudy FEW100 SCT170 84.7 57.7 40% 84 29.85 1010.8
10 12:55 NE 8 10.00 A Few Clouds FEW280 84.4 58.8 84.6 70.9 42% 84 29.86 1011.2
10 11:55 N 9 10.00 Partly Cloudy FEW095 FEW140 SCT170 SCT200 82.4 57.6 43% 82 29.88 1011.9
10 10:55 N 7 10.00 Partly Cloudy FEW080 SCT250 80.2 57.6 46% 81 29.88 1011.9
10 09:55 N 9 10.00 A Few Clouds FEW080 77.4 57.7 51% 79 29.88 1011.9
10 08:55 N 6 10.00 Partly Cloudy SCT080 75.4 59.5 58% 78 29.89 1012.2
10 07:55 NE 10 10.00 Mostly Cloudy BKN080 71.8 63.3 75% 29.89 1012.2
10 06:55 N 9 10.00 Mostly Cloudy BKN011 71.1 68 75.6 71.1 90% 29.87 1011.5
10 05:55 N 6 10.00 Mostly Cloudy FEW012 BKN140 72 68.9 90% 29.84 1010.5
10 04:55 N 9 10.00 Mostly Cloudy SCT048 BKN100 72.7 69.3 89% 29.84 1010.5
10 03:55 W 6 10.00 Partly Cloudy SCT048 72.7 69.6 90% 29.83 1010.1
10 02:55 N 8 10.00 Fair CLR 72.9 69.4 89% 29.81 1009.5
10 01:55 N 6 10.00 A Few Clouds FEW070 75 69.8 84% 75 29.82 1009.8
10 00:55 N 6 10.00 Mostly Cloudy SCT042 BKN070 75.4 69.8 90.1 75.2 83% 76 29.83 1010.1
09 23:55 N 8 10.00 Fair CLR 75.6 70.3 84% 76 29.84 1010.5
Date Time (cdt) Wind (mph) Vis. (mi.) Weather Sky Cond. Air Dwpt Max. Min. Relative Humidity Wind Chill (°F) Heat Index (°F) altimeter (in) sea level (mb) 1 hr 3 hr 6 hr
6 hour
Temperature (ºF) Pressure Precipitation (in)